Weather in Saburovshchino

Russia / Kaluga Oblast     54°26′03″N   35°39′29″E
temp.,
°C
wind,
m/s
gust,
m/s
humid.,
%
clouds,
%
prec.,
mm/h
press.,
hPa
HPBL,
m
13 june, sun
sun1300:00+13sw22915 0.0 100827
03:00+12ssw22940 0.0 100727
06:00+14ssw23920 0.0 100699
09:00+18ssw33760 0.0 1006543
12:00+21s44645 0.1 10061270
15:00+23s25583 0.3 10061486
18:00+20s358188 1.4 1006331
21:00+16sse3390100 2.5 100832
14 june, mon
mon1400:00+15s339567 1.2 100950
03:00+14ssw339510 1.2 101044
06:00+15ssw23945 0.0 1012116
09:00+19ssw238079 0.0 1014495
12:00+23sw236732 0.0 10151093
15:00+24wsw226014 0.1 10151463
18:00+24wsw11625 0.0 10141007
21:00+18sw22835 0.8 101511
15 june, tue
tue1500:00+16wsw22885 0.0 101511
03:00+15w229142 0.0 101511
06:00+17nw129012 0.0 101563
09:00+21nw2277100 0.0 1015399
12:00+23wnw226695 1.2 1013947
15:00+25wsw225960 1.6 10121322
18:00+23w227697 1.6 1011115
21:00+19w228470 2.4 101120
16 june, wed
wed1600:00+16nw359377 0.1 101182
03:00+15nnw339498 0.1 101155
06:00+16nnw369468 0.0 1011175
09:00+20n457414 0.0 1012551
12:00+22n666272 0.1 10131158
15:00+23n666413 0.2 10141519
18:00+21nne69660 0.4 1015980
21:00+15n410700 0.4 1017228
17 june, thu
thu1700:00+12nne36815 0.0 1019101
03:00+11n411800 0.0 1021194
06:00+12nne411770 0.0 1022264
09:00+17ne58610 0.0 1023534
12:00+20ne45500 0.0 10231526
15:00+22nne45494 0.0 10231636
18:00+21nne46605 0.0 1023493
21:00+15ne22795 0.0 102425